Time,TemperatureF,DewpointF,PressureIn,WindDirection,WindDirectionDegrees,WindSpeedMPH,WindSpeedGustMPH,Humidity,HourlyPrecipIn,Conditions,Clouds,dailyrainin,SoftwareType,DateUTC
2015-03-05 00:02:00,56.4,49.0,29.96,North,353,1.0,6.0,77,0.00,,,0.00,weatherlink.com 1.10,2015-03-04 13:02:00,
2015-03-05 00:17:00,55.7,49.0,29.95,SE,134,1.0,4.0,79,0.00,,,0.00,weatherlink.com 1.10,2015-03-04 13:17:00,
2015-03-05 00:32:00,55.6,49.0,29.94,ESE,116,0.0,9.0,79,0.00,,,0.00,weatherlink.com 1.10,2015-03-04 13:32:00,
2015-03-05 00:47:00,55.9,50.0,29.94,NW,324,2.0,8.0,79,0.00,,,0.00,weatherlink.com 1.10,2015-03-04 13:47:00,
2015-03-05 01:02:00,55.9,50.0,29.94,North,6,6.0,7.0,80,0.00,,,0.00,weatherlink.com 1.10,2015-03-04 14:02:00,
2015-03-05 01:17:00,55.6,50.0,29.94,SSW,206,1.0,12.0,82,0.00,,,0.00,weatherlink.com 1.10,2015-03-04 14:17:00,
2015-03-05 01:32:00,54.8,51.0,29.95,NNE,12,6.0,6.0,87,0.00,,,0.00,weatherlink.com 1.10,2015-03-04 14:32:00,
2015-03-05 01:47:00,53.4,51.0,29.95,ESE,113,1.0,11.0,92,0.00,,,0.00,weatherlink.com 1.10,2015-03-04 14:47:00,
2015-03-05 02:02:00,52.6,51.0,29.95,NE,46,0.0,14.0,93,0.00,,,0.00,weatherlink.com 1.10,2015-03-04 15:02:00,
2015-03-05 02:17:00,52.2,51.0,29.96,NE,43,3.0,9.0,94,0.00,,,0.00,weatherlink.com 1.10,2015-03-04 15:17:00,
2015-03-05 02:32:00,50.8,49.0,29.96,NE,44,1.0,15.0,93,0.00,,,0.00,weatherlink.com 1.10,2015-03-04 15:32:00,
2015-03-05 02:47:00,50.5,49.0,29.96,SSW,210,1.0,15.0,94,0.00,,,0.00,weatherlink.com 1.10,2015-03-04 15:47:00,
2015-03-05 03:02:00,50.1,48.0,29.97,ENE,78,3.0,10.0,93,0.00,,,0.00,weatherlink.com 1.10,2015-03-04 16:02:00,
2015-03-05 03:17:00,50.0,48.0,29.97,ENE,61,1.0,19.0,93,0.00,,,0.00,weatherlink.com 1.10,2015-03-04 16:17:00,
2015-03-05 03:32:00,48.6,47.0,29.99,NNE,33,3.0,13.0,93,0.00,,,0.00,weatherlink.com 1.10,2015-03-04 16:32:00,
2015-03-05 03:47:00,47.4,46.0,30.00,NNW,337,7.0,12.0,93,0.00,,,0.00,weatherlink.com 1.10,2015-03-04 16:47:00,
2015-03-05 04:02:00,46.3,44.0,30.01,NE,47,2.0,10.0,92,0.00,,,0.00,weatherlink.com 1.10,2015-03-04 17:02:00,
2015-03-05 04:17:00,46.0,44.0,30.01,ESE,104,1.0,13.0,92,0.00,,,0.00,weatherlink.com 1.10,2015-03-04 17:17:00,
2015-03-05 04:32:00,46.1,44.0,30.02,NNE,32,0.0,22.0,91,0.00,,,0.00,weatherlink.com 1.10,2015-03-04 17:32:00,
2015-03-05 04:47:00,45.9,43.0,30.03,East,84,2.0,10.0,90,0.00,,,0.00,weatherlink.com 1.10,2015-03-04 17:47:00,
2015-03-05 05:02:00,45.8,42.0,30.03,NNW,347,1.0,7.0,87,0.00,,,0.00,weatherlink.com 1.10,2015-03-04 18:02:00,
2015-03-05 05:17:00,45.5,42.0,30.04,East,81,0.0,7.0,87,0.00,,,0.00,weatherlink.com 1.10,2015-03-04 18:17:00,
2015-03-05 05:33:00,44.9,41.0,30.05,ESE,113,3.0,5.0,87,0.00,,,0.00,weatherlink.com 1.10,2015-03-04 18:33:00,
2015-03-05 05:48:00,44.8,41.0,30.04,SSE,155,2.0,12.0,85,0.00,,,0.00,weatherlink.com 1.10,2015-03-04 18:48:00,
2015-03-05 06:03:00,44.6,40.0,30.04,WNW,300,0.0,8.0,83,0.00,,,0.00,weatherlink.com 1.10,2015-03-04 19:03:00,
2015-03-05 06:18:00,44.3,40.0,30.06,East,101,2.0,5.0,84,0.00,,,0.00,weatherlink.com 1.10,2015-03-04 19:18:00,
2015-03-05 06:33:00,44.3,40.0,30.06,NE,43,0.0,8.0,84,0.00,,,0.00,weatherlink.com 1.10,2015-03-04 19:33:00,
2015-03-05 06:48:00,44.0,40.0,30.06,NNW,329,0.0,8.0,85,0.00,,,0.00,weatherlink.com 1.10,2015-03-04 19:48:00,
2015-03-05 07:03:00,43.9,40.0,30.06,NNE,18,5.0,8.0,85,0.00,,,0.00,weatherlink.com 1.10,2015-03-04 20:03:00,
2015-03-05 07:18:00,44.0,40.0,30.07,NNE,20,3.0,7.0,86,0.00,,,0.00,weatherlink.com 1.10,2015-03-04 20:18:00,
2015-03-05 07:33:00,44.2,40.0,30.08,ENE,76,3.0,5.0,86,0.00,,,0.00,weatherlink.com 1.10,2015-03-04 20:33:00,
2015-03-05 07:48:00,44.3,40.0,30.09,NE,46,4.0,8.0,86,0.00,,,0.00,weatherlink.com 1.10,2015-03-04 20:48:00,
2015-03-05 08:03:00,44.4,41.0,30.10,West,268,0.0,8.0,86,0.00,,,0.00,weatherlink.com 1.10,2015-03-04 21:03:00,
2015-03-05 08:18:00,44.9,41.0,30.11,NE,44,0.0,7.0,85,0.00,,,0.00,weatherlink.com 1.10,2015-03-04 21:18:00,